{"data":{"norad_id":63595,"epoch":"2026-05-25T00:12:39.716064Z","epoch_age_seconds":81186,"freshness":"FRESH","line1":"1 63595U 25076AC  26145.00879301  .00012317  00000+0  45626-3 0  9993","line2":"2 63595  43.0022 250.5171 0002271 272.6921  87.3670 15.27586353 63503","mean_motion":15.27586353,"eccentricity":0.0002271,"inclination_deg":43.0022,"raan_deg":250.5171,"arg_perigee_deg":272.6921,"mean_anomaly_deg":87.367,"bstar":0.00045626,"rev_number":6350,"period_min":94.266356672538,"perigee_km":481.47190189584,"apogee_km":484.58824398037,"semimajor_km":6861.1670729381,"source":"CELESTRAK","updated_at":"2026-05-25T13:38:20.051480Z"}}